Regional Weather Roundup
Issued by NWS Upton, NY

Current Version | Previous Version | Graphics & Text | Print | Product List | Glossary Off
Versions: 1 2 3 4 5 6 7 8 9 10 11 12 13 14 15 16 17 18 19 20 21 22 23 24 25 26 27

000
ASUS41 KOKX 222209
RWROKX

REGIONAL WEATHER ROUNDUP
NATIONAL WEATHER SERVICE NEW YORK NY
600 PM EDT FRI SEP 22 2017

NOTE: "FAIR" INDICATES FEW OR NO CLOUDS BELOW 12,000 FEET WITH NO
SIGNIFICANT WEATHER AND/OR OBSTRUCTIONS TO VISIBILITY.

NYZ071-072-176-178-NJZ106-104-222300-
NEW YORK CITY METRO AREA

CITY           SKY/WX    TMP DP  RH WIND       PRES   REMARKS
Central Park   MOCLDY    79  55  43 VRB7      29.97S
Bronx Bot Gard   N/A     79  55  44 W3        29.97R
LaGuardia APRT PTCLDY    79  58  48 N14       29.93S
Kennedy INTL   MOCLDY    80  57  45 N18       29.93S
Breezy Point     N/A     77 N/A N/A N15G23      N/A
Newark/Liberty MOCLDY    82  57  42 N15       29.94R
Teterboro      PTCLDY    81  57  43 N12G20    29.93S
$$

NYZ177-179-078>081-222300-
LONG ISLAND NEW YORK

CITY           SKY/WX    TMP DP  RH WIND       PRES   REMARKS
Jones Beach      N/A     77 N/A N/A N17G23      N/A
Matinecock PT    N/A     75 N/A N/A N17         N/A
Farmingdale    CLOUDY    79  60  52 N13       29.92R
MacArthur/ISP  MOCLDY    76  60  57 N14G23    29.91R
Shirley        CLOUDY    76  62  62 N13G20    29.92R
Mt Sinai Harb    N/A    N/A N/A N/A N18         N/A
Westhampton    CLOUDY    71  61  70 N16G24    29.92S
East Hampton   CLOUDY    66  59  77 N14G24    29.91S
Montauk          N/A     65  60  84 N16G32    29.92R
$$

NYZ052-065-067-222300-
HUDSON VALLEY

CITY           SKY/WX    TMP DP  RH WIND       PRES   REMARKS
White Plains   PTCLDY    76  56  49 N14       29.95S
Larchmont Harb   N/A     77 N/A N/A NW13G21     N/A
Croton On Huds   N/A     81 N/A N/A N5G13       N/A
Newburgh       PTCLDY    77  57  50 NE12      30.01R
Montgomery     CLOUDY    77  58  51 NE6       29.99S
Poughkeepsie   MOCLDY    77  50  38 N15G23    29.98R
Albany         PTCLDY    77  48  35 N5        30.03F
$$

NJZ001-105-106-008-010-013-015-019>022-104-222300-
NEW JERSEY

CITY           SKY/WX    TMP DP  RH WIND       PRES   REMARKS
Newark/Liberty MOCLDY    82  57  42 N15       29.94R
Teterboro      PTCLDY    81  57  43 N12G20    29.93S
Caldwell       CLEAR     80  58  46 NE8       29.96S
Somerville     NOT AVBL
Linden         FAIR      82  55  40 NE12      29.94S
Perth Amboy      N/A     81 N/A N/A N10         N/A
Sussex         MOCLDY    80  58  46 NE7       29.98S
Andover          N/A     78  60  53 CALM      29.98S
Trenton        CLEAR     81  59  47 N8        29.94S
Millville      PTSUNNY   77  64  64 W7        29.95S
Atlantic City  PTCLDY    76  63  64 W9        29.94R
Wrightstown    CLEAR     80  61  51 NW9       29.91S
Toms River     CLEAR     80  62  54 NW6       29.93S
Belmar         PTCLDY    81  60  48 N10       29.94S
$$

PAZ047>061-062-071-222300-
EASTERN PENNSYLVANIA

CITY           SKY/WX    TMP DP  RH WIND       PRES   REMARKS
Philadelphia   PTSUNNY   81  56  42 N8        29.95S
Allentown      SUNNY     80  57  45 N5        29.98S
Scranton       SUNNY     80  50  34 N9        30.03F
$$

CTZ002-004>006-009-010-012-RIZ004-006-007-MAZ004-011-015-222300-
SOUTHERN NEW ENGLAND
 IN CT

CITY           SKY/WX    TMP DP  RH WIND       PRES   REMARKS
Bradley INTL   MOCLDY    75  56  51 N16G28    29.98R
Hartford       CLOUDY    75  58  55 N12       29.96R
Danbury        PTCLDY    78  58  49 N10       29.97S
Wtrbury/Oxford MOCLDY    74  60  61 N12       29.98R
Norwalk Harbor   N/A     77 N/A N/A N12         N/A
Bridgeport     CLOUDY    79  59  50 N13G26    29.93R
Meriden        CLOUDY    75  56  51 N10G18    29.95R
New Haven      MOCLDY    77  56  48 N16       29.93R
Chester        CLOUDY    72  61  68 N9G21     29.94F
Groton         CLOUDY    66  59  78 N22G29    29.92R
Wilimantic     CLOUDY    69  59  70 N17G23    29.97R

 IN RI

CITY           SKY/WX    TMP DP  RH WIND       PRES   REMARKS
Providence     LGT RAIN  61  60  97 N21G32    29.96R FOG
Block Island   CLOUDY    61  58  90 N24G31    29.89S
Westerly       CLOUDY    64  59  83 N14G32    29.93R
 IN MA

CITY           SKY/WX    TMP DP  RH WIND       PRES   REMARKS
Boston         DRIZZLE   60  58  92 N23G35    29.99F FOG
Worcester      CLOUDY    61  55  81 N9        30.02S
Westfield      MOCLDY    75  52  44 N12       29.99R
Provincetown   LGT RAIN  59  58  96 NE24G32   29.91F FOG
Nantucket      LGT RAIN  62  62 100 NE26G35   29.79S FOG
$$

ANZ330-335-338-340-345-350-353-355-222300-
COASTAL MARINE OBSERVATIONS


STATION/POSITION TIME  SKY/WX   TEMP    WIND        PRES    VSBY  WAVE
                                AIR SEA DIR/SP/G                  HT/PER
                 (UTC)          (F)     (DEG/KT/KT) (MB)    (MI)  (FT/S)
NY HARB ENTRANCE 2150            74 70  330/ 12/ 14 1012.4          5/ 9
20 S FIRE ISLAND 2150            71 67   20/ 14/ 16 1012.4          7/ 8
GREAT SOUTH BAY  2115            75 70   20/ 17/ 19   N/A
23 SSW MONTAUK P 2150            65 65              1011.7          8/ 6
15 E BARNEGAT LI 2130               69                N/A           7/10
HUDSON CANYON    2050            68 69   10/ 17/ 21 1011.1          9/10
KINGS POINT      2136            77 71   40/ 12/ 17 1014.6
EXECUTION ROCKS  2145            81      10/ 14/ 19   N/A
WESTERN LI SOUND NOT AVBL
CENTRAL LI SOUND NOT AVBL
EASTERN LI SOUND NOT AVBL
ROBBINS REEF     2136            80     360/ 18/ 20 1014.1
$$


>>>>>>>>>>>>>>>>>>>>>>>>>>>> KEY <<<<<<<<<<<<<<<<<<<<<<<<<<<
>                                                          <
>     SKY/WX - Sky Condition/Present Weather               <
>     TMP    - Temperature in Fahrenheit                   <
>     DP     - Dew Point in Fahrenheit                     <
>     RH     - Relative Humidity in Percent                <
>     WIND   - Direction (from) and Speed in MPH           <
>     PRES   - Mean Sea Level Pressure (inches of Hg)      <
>     WCI    - Wind Chill Index                            <
>     VSB    - VISIBILITY IN MILES                         <
>     HX     - HEAT INDEX                                  <
>     TC     - TEMPERATURE IN CELSIUS                      <
>     VRB    - VARIABLE WIND DIRECTION                     <
>                                                          <
>>>>>>>>>>>>>>>>>>>>>>>>>>>> KEY <<<<<<<<<<<<<<<<<<<<<<<<<<<




USA.gov is the U.S. government's official web portal to all federal, state and local government web resources and services.